[[{"header":{"parameterUnit":"m.s-1","parameterCategory":1,"la1":30.2992,"la2":30.254,"lo1":-89.0895,"lo2":-89.0443,"dy":0.0025,"dx":0.0025,"nx":19,"ny":19,"refTime":"2026-04-25T03:00:00:Z","depth":0,"parameterNumber":2,"parameterNumberName":"U-component_of_WINDS"},"data":[0,0,0,-0.5145,-0.5143,-0.505,-0.505,-0.493,-0.4929,0,0,0,0,0,0,0,0,0,0,0,-0.5174,-0.5174,-0.5145,-0.5143,-0.505,-0.505,-0.493,-0.4929,0,0,0,0,0,0,0,0,0,0,0,-0.5175,-0.5174,-0.5173,-0.5143,-0.505,-0.505,-0.4931,-0.5,0,0,0,0,0,0,0,0,0,0,-0.509,-0.512,-0.5174,-0.5173,-0.5142,-0.505,-0.505,-0.5004,-0.4996,-0.4973,0,-0.4955,0,-0.494,-0.4921,-0.4921,0,0,0,-0.5141,-0.5127,-0.51,-0.5173,-0.5141,-0.5051,-0.5091,-0.4999,-0.4991,-0.4963,-0.4953,-0.4948,-0.4938,-0.4921,-0.492,-0.4798,-0.4798,0,0,-0.5146,-0.5158,-0.5106,-0.5095,-0.5112,-0.5094,-0.5089,-0.4994,-0.4984,-0.4953,-0.4946,-0.4936,-0.492,-0.4919,-0.4799,-0.4798,0,0,0,-0.5162,-0.5162,-0.5138,-0.51,-0.5083,-0.5092,-0.5085,-0.4988,-0.4979,-0.4944,-0.4935,-0.4919,-0.4918,-0.4799,-0.4799,-0.4788,0,0,0,-0.5165,-0.5171,-0.514,-0.5146,-0.5085,-0.5035,-0.5081,-0.4986,-0.4974,-0.4936,-0.4919,-0.4917,-0.48,-0.4799,-0.4789,-0.478,0,0,0,-0.518,-0.5173,-0.516,-0.5147,-0.5108,-0.5036,-0.5022,-0.4983,-0.4969,-0.4921,-0.4916,-0.48,-0.4799,-0.4791,-0.4782,-0.4752,0,0,0,-0.5198,-0.5151,-0.516,-0.5104,-0.5109,-0.5031,-0.5022,-0.4963,-0.4921,-0.4919,-0.48,-0.4799,-0.4791,-0.4784,-0.4753,-0.4728,-0.4719,0,0,-0.5146,-0.5145,-0.5111,-0.5117,-0.5041,-0.5044,-0.4966,-0.4914,-0.4897,-0.4832,-0.4828,-0.4789,-0.4783,-0.4752,-0.4665,-0.4658,0,0,0,-0.5099,-0.5074,-0.5051,-0.5013,-0.4974,-0.4939,-0.4899,-0.488,-0.4824,-0.4867,-0.477,-0.4765,-0.4747,-0.4734,-0.4728,-0.4711,-0.4794,-0.4794,-0.4794,-0.5041,-0.5024,-0.4966,-0.4937,-0.49,-0.4859,-0.4827,-0.4793,-0.4785,-0.4763,-0.4743,-0.4693,-0.4678,-0.4674,-0.4656,-0.4729,-0.4729,-0.4729,-0.4729,-0.4961,-0.4924,-0.4916,-0.4857,-0.4838,-0.4788,-0.4746,-0.4742,-0.4691,-0.4706,-0.4689,-0.4706,-0.4667,-0.465,-0.4728,-0.4728,-0.4728,-0.4728,-0.4728,-0.4921,-0.49,-0.4879,-0.4822,-0.4779,-0.4751,-0.4703,-0.4687,-0.4671,-0.4655,-0.4631,-0.4632,-0.4629,-0.4645,-0.4645,-0.4645,-0.4644,-0.4644,-0.4644,-0.4887,-0.4864,-0.4827,-0.4782,-0.4755,-0.4718,-0.4677,-0.4649,-0.4614,-0.4606,-0.4605,-0.4599,-0.4667,-0.4684,-0.4641,-0.4642,-0.4642,-0.4643,-0.4643,-0.4812,-0.4827,-0.4769,-0.4743,-0.4688,-0.4646,-0.4627,-0.4572,-0.4547,-0.4523,-0.4521,-0.4574,-0.4572,-0.4576,-0.459,-0.4526,-0.4526,-0.4526,-0.4526,-0.4778,-0.4776,-0.4713,-0.4671,-0.4629,-0.4606,-0.4538,-0.4506,-0.4473,-0.4456,-0.4463,-0.448,-0.4486,-0.448,-0.4487,-0.4499,-0.4413,-0.4413,-0.4413,-0.473,-0.4724,-0.4671,-0.4642,-0.4598,-0.456,-0.4496,-0.4447,-0.4413,-0.4408,-0.4442,-0.4447,-0.4474,-0.4484,-0.448,-0.4491,-0.4513,0,0]},{"header":{"parameterUnit":"m.s-1","parameterCategory":1,"la1":30.2992,"la2":30.254,"lo1":-89.0895,"lo2":-89.0443,"dy":0.0025,"dx":0.0025,"nx":19,"ny":19,"refTime":"2026-04-25T03:00:00:Z","depth":0,"parameterNumber":3,"parameterNumberName":"V-component_of_WINDS"},"data":[0,0,0,1.3292,1.3296,1.3494,1.3495,1.3729,1.3731,0,0,0,0,0,0,0,0,0,0,0,1.3221,1.3222,1.3292,1.3297,1.3494,1.3495,1.3729,1.3731,0,0,0,0,0,0,0,0,0,0,0,1.322,1.3221,1.3223,1.3297,1.3494,1.3495,1.3729,1.3586,0,0,0,0,0,0,0,0,0,0,1.3398,1.3318,1.3221,1.3223,1.3298,1.3494,1.3496,1.358,1.3595,1.3631,0,1.3658,0,1.3698,1.3746,1.3746,0,0,0,1.3307,1.3305,1.337,1.3223,1.33,1.3494,1.3408,1.3589,1.3606,1.3651,1.3661,1.3671,1.3702,1.3747,1.3748,1.3917,1.3917,0,0,1.3296,1.325,1.3358,1.3381,1.3347,1.3402,1.3414,1.36,1.3608,1.3662,1.3677,1.3706,1.3748,1.375,1.3917,1.3917,0,0,0,1.3258,1.3241,1.3303,1.3371,1.3408,1.3407,1.3421,1.36,1.3624,1.3679,1.3709,1.375,1.3752,1.3916,1.3917,1.3887,0,0,0,1.3252,1.3219,1.3297,1.3271,1.3404,1.3506,1.3417,1.3611,1.3633,1.3707,1.375,1.3754,1.3916,1.3917,1.3887,1.388,0,0,0,1.3212,1.3215,1.3239,1.3268,1.3351,1.3504,1.3539,1.3617,1.3651,1.3747,1.3755,1.3916,1.3917,1.3887,1.3881,1.3911,0,0,0,1.3157,1.3209,1.3237,1.3307,1.3349,1.3483,1.3538,1.3641,1.3719,1.3751,1.3916,1.3917,1.3887,1.3881,1.3911,1.3929,1.3931,0,0,1.3197,1.3212,1.3257,1.3288,1.3405,1.3457,1.3571,1.3687,1.374,1.3855,1.386,1.3887,1.3881,1.3911,1.3963,1.3965,0,0,0,1.3254,1.3286,1.3327,1.3399,1.3488,1.3565,1.3669,1.3713,1.3813,1.3789,1.3907,1.3905,1.3925,1.3936,1.3938,1.3958,1.392,1.392,1.3919,1.3243,1.3307,1.3386,1.3473,1.3542,1.3649,1.3712,1.3789,1.3834,1.3861,1.3895,1.3919,1.3929,1.3931,1.3951,1.391,1.391,1.3909,1.3909,1.3308,1.3363,1.342,1.3517,1.3584,1.3667,1.3773,1.3802,1.389,1.3898,1.3918,1.3921,1.3931,1.3952,1.3908,1.3908,1.3908,1.3908,1.3909,1.3308,1.3346,1.3397,1.3508,1.3587,1.3675,1.3756,1.3815,1.3872,1.3892,1.3936,1.3937,1.3945,1.3909,1.3909,1.3909,1.3909,1.3909,1.3909,1.3288,1.3347,1.3408,1.3507,1.3562,1.3641,1.375,1.3806,1.3883,1.392,1.392,1.3962,1.3919,1.3907,1.3911,1.391,1.391,1.391,1.391,1.333,1.333,1.3423,1.3478,1.3601,1.3675,1.375,1.3859,1.3914,1.3952,1.3991,1.3949,1.3969,1.3969,1.3959,1.3976,1.3976,1.3976,1.3976,1.333,1.3346,1.3455,1.3539,1.3627,1.3704,1.381,1.3895,1.3984,1.4022,1.4029,1.4021,1.4018,1.4041,1.4038,1.403,1.4065,1.4065,1.4065,1.336,1.3387,1.3464,1.355,1.3651,1.3736,1.3838,1.3933,1.4034,1.407,1.4054,1.405,1.4039,1.4032,1.4067,1.4062,1.4049,0,0]}]]